Location: San Antonio
(29.4240°N, 98.4930°W)
Time: 03:43:28
(UTC-05:00)

ISS - All Passes

Search period start: 25 October 2014 00:00
Search period end: 03 November 2014 23:00
Orbit: 412 x 416 km, 51.6° (Epoch: 25 October)

Date Brightness Start Highest point End Pass type
(mag) Time Alt. Az. Time Alt. Az. Time Alt. Az.
25 Oct - 11:19:17 10° SE 11:19:41 10° SE 11:20:04 10° ESE daylight
25 Oct - 12:52:49 10° WSW 12:56:00 45° NW 12:59:13 10° NNE daylight
25 Oct - 19:27:56 10° NNE 19:29:00 11° NE 19:30:04 10° NE visible
25 Oct - 21:02:40 10° NW 21:05:58 62° SW 21:09:14 10° SSE visible
26 Oct - 12:03:29 10° SW 12:06:48 82° SE 12:10:07 10° NE daylight
26 Oct - 20:13:28 10° NW 20:16:46 58° NE 20:20:02 10° SE visible
27 Oct - 11:14:33 10° SSW 11:17:37 36° SE 11:20:42 10° ENE daylight
27 Oct - 12:52:17 10° WNW 12:54:23 16° NW 12:56:29 10° N daylight
27 Oct - 19:24:30 10° NNW 19:27:27 29° NE 19:30:23 10° ESE visible
27 Oct - 21:01:45 10° W 21:03:56 16° SW 21:06:06 10° SSW visible
28 Oct - 10:26:11 10° S 10:28:28 17° SE 10:30:44 10° E daylight
28 Oct - 12:02:04 10° WSW 12:04:57 27° NW 12:07:51 10° NNE daylight
28 Oct - 18:35:49 10° N 18:38:01 16° NE 18:40:13 10° E daylight
28 Oct - 20:11:43 10° WNW 20:14:45 34° SW 20:17:47 10° SSE visible
29 Oct - 11:12:19 10° SW 11:15:34 55° NW 11:18:50 10° NE daylight
29 Oct - 19:22:10 10° NW 19:25:29 77° SW 19:28:47 10° SE visible
30 Oct - 10:22:57 10° SW 10:26:13 66° SE 10:29:31 10° NE daylight
30 Oct - 12:02:23 10° NW 12:03:11 11° NW 12:04:00 10° NNW daylight
30 Oct - 18:32:53 10° NNW 18:36:07 47° NE 18:39:19 10° ESE daylight
31 Oct - 09:33:59 10° S 09:36:54 29° SE 09:39:49 10° ENE daylight
31 Oct - 11:11:13 10° W 11:13:35 18° NW 11:15:57 10° N daylight
31 Oct - 17:43:50 10° NNW 17:46:37 24° NE 17:49:23 10° E daylight
31 Oct - 19:20:39 10° WNW 19:23:09 20° SW 19:25:39 10° S visible
01 Nov - 08:45:45 10° SSE 08:47:36 14° SE 08:49:28 10° E daylight
01 Nov - 10:21:00 10° WSW 10:24:01 32° NW 10:27:03 10° NNE daylight
01 Nov - 16:55:09 10° N 16:57:00 14° NE 16:58:51 10° ENE daylight
01 Nov - 18:30:39 10° WNW 18:33:48 42° SW 18:36:57 10° SSE daylight
02 Nov - 08:31:12 10° SW 08:34:30 69° NW 08:37:48 10° NE daylight
02 Nov - 16:41:02 10° NW 16:44:22 84° NE 16:47:40 10° SE daylight
03 Nov - 07:41:47 10° SSW 07:45:00 51° SE 07:48:14 10° NE daylight
03 Nov - 09:20:23 10° WNW 09:21:52 12° NW 09:23:21 10° N daylight
03 Nov - 15:51:41 10° NNW 15:54:48 38° NE 15:57:55 10° ESE daylight
03 Nov - 17:29:48 10° W 17:31:09 12° SW 17:32:30 10° SSW daylight
